User: anonymous   Login
Location: Friaudour
(46.0460°N, 1.2873°E)
Time: 13:47:40
(UTC+00:00)
Language:

Cosmos 1900 - Orbit

View from above orbital plane
View from above orbital plane
View from above satellite
View from above satellite

Ground track
Ground track

The orbit data is extracted from the following two-line orbital elements,

1 18665U 87101A   20274.89635213 -.00000075 +00000-0 +68193-5 0  9990
2 18665 066.0832 086.6364 0044512 297.8452 061.8146 14.54487196745156
Epoch (UTC): 30 September 2020 21:30:44
Eccentricity: 0.0044512
inclination: 66.0832°
perigee height: 679 km
apogee height: 742 km
right ascension of ascending node: 86.6364°
argument of perigee: 297.8452°
revolutions per day: 14.54487196
mean anomaly at epoch: 61.8146°
orbit number at epoch: 74515

The dashed part of the orbit path shows where the satellite is in the earth's shadow,  

DLR